Regional Weather Roundup
Issued by NWS

Home | Current Version | Previous Version | Text Only | Print | Product List | Glossary On
Versions: 1 2 3 4 5 6 7 8 9 10 11 12 13 14 15 16 17 18 19 20 21 22 23 24 25 26 27 28 29 30 31 32 33 34 35 36 37 38 39 40 41 42 43 44 45 46 47 48 49 50
000
ASUS45 KPSR 070510
RWRAZ

ARIZONA REGIONAL HOURLY WEATHER ROUNDUP
NATIONAL WEATHER SERVICE PHOENIX AZ
1000 PM MST WED MAY 06 2015

NOTE: FAIR INDICATES FEW OR NO CLOUDS BELOW 12,000 FEET WITH NO
SIGNIFICANT WEATHER AND/OR OBSTRUCTIONS TO VISIBILITY.

AZZ001>003-036-070600-
NORTHWEST ARIZONA

CITY           SKY/WX    TMP DP  RH WIND       PRES   REMARKS
BULLHEAD CITY  CLEAR     77  32  19 S12       29.65R
KINGMAN        CLEAR     60  36  40 S8        29.77R
$$

AZZ004>008-015-016-018-070600-
NORTH CENTRAL ARIZONA

CITY           SKY/WX    TMP DP  RH WIND       PRES   REMARKS
GRAND CANYON   PTCLDY    46  28  49 SW8       29.92R
WILLIAMS       PTCLDY    46  30  53 S6        30.00R
PRESCOTT       CLEAR     54  30  40 SW9       29.87S
FLAGSTAFF      PTCLDY    41  29  62 CALM      29.94S
PAYSON         PTCLDY    59  34  38 SW12      29.91R
PAGE           PTCLDY    65  30  27 S7        29.76R
$$

AZZ009>014-017-070600-
NORTHEAST ARIZONA

CITY           SKY/WX    TMP DP  RH WIND       PRES   REMARKS
WINSLOW        PTCLDY    51  30  44 S6        29.87S
SAINT JOHNS    PTCLDY    53  30  41 S3        29.91R
WINDOW ROCK    CLEAR     47  30  51 CALM      29.95R
SHOW LOW       CLEAR     45  27  49 S8        29.95S
$$

AZZ023-070600-
GREATER PHOENIX AREA

CITY           SKY/WX    TMP DP  RH WIND       PRES   REMARKS
PHOENIX        PTCLDY    76  32  20 SW9       29.73R
LUKE AFB       CLEAR     72  38  28 SW10      29.73R
DEER VALLEY    CLEAR     73  33  23 SW12      29.75R
SCOTTSDALE     CLEAR     75  32  20 W8        29.77R
MESA-GATEWAY   PTCLDY    72  36  26 SW7       29.78R
$$

AZZ027-028-070600-
SOUTHWEST MARICOPA COUNTY AND PINAL COUNTY

CITY           SKY/WX    TMP DP  RH WIND       PRES   REMARKS
CASA GRANDE    CLEAR     72  37  28 W7        29.76R
GILA BEND      CLEAR     71  34  26 SW15      29.73R
$$

AZZ503-504-507>509-070600-
SOUTHEAST ARIZONA

CITY           SKY/WX    TMP DP  RH WIND       PRES   REMARKS
TUCSON         CLEAR     71  42  35 SW5       29.84R
DAVIS-MONTHAN  CLEAR     71  39  31 SW10      29.82R
NOGALES        CLEAR     63  22  20 SE6       29.90R
SIERRA VISTA   CLEAR     64  28  25 W8G24     29.94R
DOUGLAS        CLEAR     60  28  29 W6        29.91R
SAFFORD        CLEAR     65  25  22 NW7       29.79R
$$

AZZ020-021-025-026-031-070600-
SOUTHWEST ARIZONA

CITY           SKY/WX    TMP DP  RH WIND       PRES   REMARKS
YUMA           CLEAR     72  43  35 NW10      29.74R
$$

CAZ031-033-041-043-047-048-061-070600-
SOUTHERN CALIFORNIA

CITY           SKY/WX    TMP DP  RH WIND       PRES   REMARKS
DOWNTOWN L.A.  CLOUDY    60  50  69 CALM      29.87R
L.A. AIRPORT   PTCLDY    57  51  80 W12       29.88R
SAN DIEGO      MOCLDY    61  49  64 W8        29.91R
BURBANK        CLOUDY    60  45  57 S6        29.86R
ONTARIO        CLOUDY    58  48  69 SW12      29.87R
RIVERSIDE      CLOUDY    59  49  69 W8        29.86R
PALM SPRINGS   CLEAR     71  42  35 NW23      29.70R
EL CENTRO NAS  CLEAR     68  43  40 W24       29.73S
IMPERIAL       CLEAR     66  45  46 W14G24    29.71R
BLYTHE         CLEAR     73  47  39 SW16      29.68R
NEEDLES        CLEAR     78  25  14 SW12      29.65R
$$

NVZ020-UTZ003-070600-
SOUTHERN NEVADA-UTAH

CITY           SKY/WX    TMP DP  RH WIND       PRES   REMARKS
LAS VEGAS      CLEAR     76  21  12 S20G28    29.60R
SALT LAKE CITY LGT RAIN  49  47  93 NW9       29.79R
$$

NMZ009-TXZ055-070600-
NEW MEXICO-WEST TEXAS

CITY           SKY/WX    TMP DP  RH WIND       PRES   REMARKS
ALBUQUERQUE    MOCLDY    60  40  47 W8        29.91R THUNDER
EL PASO        PTCLDY    77  17  10 W12       29.83R
$$


........................KEY........................
SKY/WX - SKY CONDITION/WEATHER
TMP    - TEMPERATURE IN FAHRENHEIT
DP     - DEW POINT IN FAHRENHEIT
RH     - RELATIVE HUMIDITY IN PERCENT
WIND   - DIRECTION AND SPEED IN MILES PER HOUR (MPH)
VRB    - VARIABLE WIND DIRECTION
PRES   - MEAN SEA LEVEL PRESSURE IN INCHES OF MERCURY
         F - FALLING PRESSURE   R - RISING PRESSURE
         S - STEADY PRESSURE
VSB    - VISIBILITY IN MILES
HX     - HEAT INDEX IN FAHRENHEIT
WCI    - WIND CHILL INDEX IN FAHRENHEIT
TC     - TEMPERATURE IN CELSIUS WHICH IS ALSO KNOWN AS
         TEMPERATURE IN CENTIGRADE
AFB    - AIR FORCE BASE
         LUKE AFB IS LUKE AIR FORCE BASE
         DAVIS-MONTHAN IS DAVIS-MONTHAN AIR FORCE BASE
NAS    - NAVAL AIR STATION
         EL CENTRO NAS IS EL CENTRO NAVAL AIR STATION
N/A    - NOT AVAILABLE



USA.gov is the U.S. government's official web portal to all federal, state and local government web resources and services.